| time (UTC) | temp C | wind direction | speed KPH | gust KPH | rain 1hr cm | rain 24hr cm | rain mn cm | humidity % | barometer mb |
| 20260503224024 | 9 | 135 | 4.8 | 8.0 | 0.00 | 0.00 | 0.00 | 27 | 1017.7 |
| 20260503223021 | 9 | 113 | 4.8 | 4.8 | 0.00 | 0.00 | 0.00 | 27 | 1017.7 |
| 20260503222022 | 9 | 113 | 1.6 | 3.2 | 0.00 | 0.00 | 0.00 | 26 | 1017.9 |
| 20260503221022 | 10 | 135 | 8.0 | 9.7 | 0.00 | 0.00 | 0.00 | 26 | 1017.7 |
| 20260503220022 | 10 | 248 | 3.2 | 4.8 | 0.00 | 0.00 | 0.00 | 26 | 1017.6 |
| 20260503215022 | 10 | 203 | 9.7 | 16.1 | 0.00 | 0.00 | 0.00 | 25 | 1017.6 |
| 20260503214021 | 10 | 158 | 3.2 | 4.8 | 0.00 | 0.00 | 0.00 | 26 | 1017.6 |
| 20260503213024 | 10 | 180 | 4.8 | 4.8 | 0.00 | 0.00 | 0.00 | 27 | 1017.7 |
| 20260503212024 | 10 | 225 | 4.8 | 6.4 | 0.00 | 0.00 | 0.00 | 27 | 1017.7 |
| 20260503211022 | 10 | 248 | 3.2 | 4.8 | 0.00 | 0.00 | 0.00 | 26 | 1017.8 |
| 20260503210022 | 10 | 113 | 3.2 | 4.8 | 0.00 | 0.00 | 0.00 | 26 | 1017.7 |
| 20260503205021 | 10 | 203 | 8.0 | 14.5 | 0.00 | 0.00 | 0.00 | 27 | 1017.7 |
| 20260503204022 | 10 | 158 | 3.2 | 6.4 | 0.00 | 0.00 | 0.00 | 26 | 1017.7 |
| 20260503203023 | 10 | 158 | 6.4 | 9.7 | 0.00 | 0.00 | 0.00 | 27 | 1017.8 |
| 20260503202022 | 11 | 135 | 4.8 | 6.4 | 0.00 | 0.00 | 0.00 | 26 | 1017.9 |
| 20260503201021 | 10 | 135 | 1.6 | 3.2 | 0.00 | 0.00 | 0.00 | 28 | 1017.9 |
| 20260503200022 | 11 | 113 | 1.6 | 3.2 | 0.00 | 0.00 | 0.00 | 28 | 1018.0 |
| 20260503195021 | 10 | 68 | 4.8 | 4.8 | 0.00 | 0.00 | 0.00 | 27 | 1018.0 |
| 20260503194022 | 10 | 180 | 8.0 | 9.7 | 0.00 | 0.00 | 0.00 | 27 | 1018.1 |
| 20260503193022 | 10 | 158 | 8.0 | 12.9 | 0.00 | 0.00 | 0.00 | 26 | 1018.2 |
| 20260503192021 | 9 | 180 | 6.4 | 11.3 | 0.00 | 0.00 | 0.00 | 29 | 1018.3 |
| 20260503191022 | 10 | 113 | 6.4 | 9.7 | 0.00 | 0.00 | 0.00 | 28 | 1018.3 |
| 20260503190024 | 9 | 135 | 9.7 | 11.3 | 0.00 | 0.00 | 0.00 | 29 | 1018.3 |
| 20260503185021 | 9 | 225 | 4.8 | 6.4 | 0.00 | 0.00 | 0.00 | 29 | 1018.4 |
| 20260503184022 | 10 | 158 | 3.2 | 6.4 | 0.00 | 0.00 | 0.00 | 28 | 1018.7 |
| 20260503183021 | 9 | 180 | 3.2 | 4.8 | 0.00 | 0.00 | 0.00 | 30 | 1018.7 |
| 20260503182022 | 8 | 158 | 4.8 | 8.0 | 0.00 | 0.00 | 0.00 | 31 | 1018.7 |
| 20260503181024 | 8 | 203 | 4.8 | 4.8 | 0.00 | 0.00 | 0.00 | 31 | 1018.8 |
| 20260503180022 | 8 | 270 | 4.8 | 6.4 | 0.00 | 0.00 | 0.00 | 32 | 1018.6 |
| 20260503175026 | 8 | 135 | 4.8 | 8.0 | 0.00 | 0.00 | 0.00 | 33 | 1018.8 |
| 20260503174023 | 8 | 135 | 4.8 | 8.0 | 0.00 | 0.00 | 0.00 | 32 | 1018.7 |
| 20260503173023 | 8 | 135 | 8.0 | 11.3 | 0.00 | 0.00 | 0.00 | 32 | 1018.6 |
| 20260503172022 | 8 | 135 | 4.8 | 8.0 | 0.00 | 0.00 | 0.00 | 33 | 1018.5 |
| 20260503171023 | 7 | 203 | 9.7 | 11.3 | 0.00 | 0.00 | 0.00 | 36 | 1018.6 |
| 20260503131022 | 0 | 225 | 11.3 | 11.3 | 0.00 | 0.00 | 0.00 | 61 | 1018.0 |
| 20260503081022 | -2 | 203 | 6.4 | 9.7 | 0.00 | 0.00 | 0.00 | 76 | 1015.1 |
| 20260503072022 | -1 | 203 | 8.0 | 9.7 | 0.00 | 0.00 | 0.00 | 74 | 1015.0 |
| 20260503071021 | -1 | 180 | 1.6 | 3.2 | 0.00 | 0.00 | 0.00 | 74 | 1014.8 |
| 20260503055021 | -1 | 203 | 8.0 | 8.0 | 0.00 | 0.00 | 0.00 | 75 | 1015.2 |
| 20260503054028 | 0 | 203 | 8.0 | 8.0 | 0.00 | 0.00 | 0.00 | 75 | 1015.1 |
| 20260503053024 | 0 | 180 | 9.7 | 11.3 | 0.00 | 0.00 | 0.00 | 75 | 1015.2 |
| 20260503052022 | 0 | 158 | 6.4 | 8.0 | 0.00 | 0.00 | 0.00 | 74 | 1015.3 |
| 20260503051022 | -1 | 203 | 9.7 | 11.3 | 0.00 | 0.00 | 0.00 | 74 | 1015.3 |
| 20260503050022 | 0 | 180 | 8.0 | 9.7 | 0.00 | 0.00 | 0.00 | 72 | 1015.3 |
| 20260503045022 | 0 | 203 | 8.0 | 9.7 | 0.00 | 0.00 | 0.00 | 72 | 1015.3 |
| 20260503044022 | 0 | 203 | 6.4 | 6.4 | 0.00 | 0.00 | 0.00 | 71 | 1015.3 |
| 20260503043022 | 0 | 180 | 8.0 | 9.7 | 0.00 | 0.00 | 0.00 | 70 | 1015.4 |
| 20260503042022 | 0 | 203 | 6.4 | 8.0 | 0.00 | 0.00 | 0.00 | 69 | 1015.4 |
| 20260503041021 | 0 | 248 | 1.6 | 3.2 | 0.00 | 0.00 | 0.00 | 70 | 1015.6 |
| 20260503040026 | 0 | 203 | 8.0 | 9.7 | 0.00 | 0.00 | 0.00 | 68 | 1015.5 |
| 20260503035022 | 0 | 180 | 6.4 | 8.0 | 0.00 | 0.00 | 0.00 | 67 | 1015.5 |
| 20260503034021 | 0 | 203 | 6.4 | 8.0 | 0.00 | 0.00 | 0.00 | 67 | 1015.5 |
| 20260503033022 | 0 | 203 | 4.8 | 6.4 | 0.00 | 0.00 | 0.00 | 67 | 1015.5 |
| 20260503032021 | 0 | 203 | 3.2 | 6.4 | 0.00 | 0.00 | 0.00 | 67 | 1015.5 |
| 20260503031022 | 0 | 158 | 6.4 | 8.0 | 0.00 | 0.00 | 0.00 | 67 | 1015.3 |
| 20260503030022 | 0 | 180 | 8.0 | 11.3 | 0.00 | 0.00 | 0.00 | 66 | 1015.1 |
| 20260503025022 | 0 | 158 | 4.8 | 9.7 | 0.00 | 0.00 | 0.00 | 67 | 1015.2 |
| 20260503024022 | 0 | 180 | 8.0 | 9.7 | 0.00 | 0.00 | 0.00 | 67 | 1015.2 |
| 20260503023021 | 0 | 203 | 6.4 | 9.7 | 0.00 | 0.00 | 0.00 | 66 | 1015.3 |
| 20260503022022 | 0 | 135 | 3.2 | 8.0 | 0.00 | 0.00 | 0.00 | 66 | 1015.3 |
| 20260503021022 | 0 | 180 | 3.2 | 4.8 | 0.00 | 0.00 | 0.00 | 65 | 1015.2 |
| 20260503020022 | 0 | 113 | 4.8 | 8.0 | 0.00 | 0.00 | 0.00 | 64 | 1015.3 |
| 20260503015022 | 0 | 180 | 8.0 | 11.3 | 0.00 | 0.00 | 0.00 | 63 | 1015.3 |
| 20260503014021 | 0 | 180 | 6.4 | 8.0 | 0.00 | 0.00 | 0.00 | 62 | 1015.2 |
| 20260503013024 | 0 | 180 | 6.4 | 8.0 | 0.00 | 0.00 | 0.00 | 62 | 1015.1 |
| 20260503012022 | 1 | 158 | 4.8 | 4.8 | 0.00 | 0.00 | 0.00 | 61 | 1015.1 |
| 20260503011024 | 1 | 113 | 3.2 | 4.8 | 0.00 | 0.00 | 0.00 | 60 | 1015.0 |
| 20260503010021 | 1 | 113 | 8.0 | 11.3 | 0.00 | 0.00 | 0.00 | 58 | 1015.0 |
| 20260503005022 | 1 | 158 | 6.4 | 8.0 | 0.00 | 0.00 | 0.00 | 57 | 1014.9 |
| 20260503004021 | 1 | 113 | 9.7 | 12.9 | 0.00 | 0.00 | 0.00 | 55 | 1014.7 |
| 20260503003022 | 1 | 158 | 6.4 | 8.0 | 0.00 | 0.00 | 0.00 | 53 | 1014.6 |
| 20260503002024 | 2 | 135 | 4.8 | 6.4 | 0.00 | 0.00 | 0.00 | 53 | 1014.4 |
| 20260503001022 | 2 | 180 | 1.6 | 3.2 | 0.00 | 0.00 | 0.00 | 53 | 1014.3 |
| 20260503000022 | 2 | 90 | 6.4 | 9.7 | 0.00 | 0.00 | 0.00 | 53 | 1014.3 |
| 20260502235022 | 2 | 90 | 4.8 | 8.0 | 0.00 | 0.00 | 0.00 | 52 | 1014.3 |
| 20260502234022 | 2 | 158 | 11.3 | 14.5 | 0.00 | 0.00 | 0.00 | 52 | 1014.1 |
| 20260502233023 | 2 | 225 | 4.8 | 6.4 | 0.00 | 0.00 | 0.00 | 51 | 1014.2 |
| 20260502232022 | 3 | 113 | 4.8 | 8.0 | 0.00 | 0.00 | 0.00 | 50 | 1014.0 |
| 20260502231021 | 3 | 203 | 6.4 | 8.0 | 0.00 | 0.00 | 0.00 | 49 | 1014.1 |
| 20260502230024 | 3 | 113 | 3.2 | 4.8 | 0.00 | 0.00 | 0.00 | 48 | 1014.1 |
| 20260502225024 | 4 | 113 | 6.4 | 6.4 | 0.00 | 0.00 | 0.00 | 47 | 1013.9 |